Location: Nashville
(36.1660°N, 86.7840°W)
Time: 04:18:11
(UTC-05:00)

Tiros 1 - Pass Details

Date: 06 February 2022
Orbit: 630 x 663 km, 48.4° (Epoch: 29 May)

Event Time Altitude Azimuth Distance (km) Brightness Sun altitude
Rises 18:34:50 0° 265° (W) 2,971 12.4 -15.7°
Reaches altitude 10° 18:37:24 10° 275° (W) 2,066 11.0 -16.2°
Maximum altitude 18:41:38 31° 338° (NNW) 1,162 8.6 -17.0°
Enters shadow 18:44:32 17° 30° (NNE) 1,654 8.9 -17.6°
